This demonstration page uses our WeatherBlox Daily Observations layout. Learn more.

Left ArrowRight Arrow

Hourly Observations for November 5, 2016

Temp ( °F °C ) Dew Point ( °F °C ) Humidity (%) Winds ( mph kmh ) Pressure ( in mb ) Visibility ( mi km ) Precip ( " mm )
12:15 am 00:15 Clear 50 9.8 34 1.1 55 55 SSW 7 11 30.30 1026 10 16 N/A
12:35 am 00:35 Clear 50 10.1 35 1.5 55 55 SW 6 9 30.30 1026 10 16 N/A
12:55 am 00:55 Clear 50 10.1 35 1.7 56 56 SW 9 15 30.30 1026 10 16 N/A
1:15 am 01:15 Clear 51 10.3 36 2 57 57 SSW 8 13 30.30 1026 10 16 N/A
1:35 am 01:35 Clear 49 9.7 35 1.7 58 58 SSW 8 13 30.30 1026 10 16 N/A
1:55 am 01:55 Clear 49 9.4 36 2 60 60 SSW 7 11 30.30 1026 10 16 N/A
2:15 am 02:15 Clear 48 8.8 36 2 63 63 SSW 6 9 30.30 1026 10 16 N/A
2:35 am 02:35 Clear 48 8.8 36 2 63 63 SSW 7 11 30.30 1026 10 16 N/A
2:55 am 02:55 Clear 46 7.7 35 1.7 66 66 SSW 6 9 30.33 1027 10 16 N/A
3:15 am 03:15 Clear 46 7.8 35 1.8 66 66 SSW 5 7 30.33 1027 10 16 N/A
3:35 am 03:35 Clear 46 7.6 35 1.7 67 67 SSW 5 7 30.33 1027 10 16 N/A
3:55 am 03:55 Clear 45 7 35 1.6 69 69 SSW 6 9 30.33 1027 10 16 N/A
4:15 am 04:15 Clear 40 4.7 32 undefined 72 72 N N/A 30.36 1028 10 16 N/A
4:35 am 04:35 Clear 40 4.7 33 0.5 74 74 S 5 7 30.36 1028 10 16 N/A
4:55 am 04:55 Clear 41 4.8 33 0.5 74 74 SSE 3 6 30.36 1028 10 16 N/A
5:15 am 05:15 Clear 37 2.8 32 undefined 82 82 SSE 6 9 30.33 1027 10 16 N/A
5:35 am 05:35 Clear 38 3.2 32 undefined 80 80 S 3 6 30.36 1028 10 16 N/A
5:55 am 05:55 Clear 37 2.7 32 undefined 83 83 N N/A 30.36 1028 10 16 N/A
6:15 am 06:15 Clear 39 3.7 33 0.6 80 80 N N/A 30.36 1028 10 16 N/A
6:35 am 06:35 Clear 39 3.8 33 0.5 79 79 N N/A 30.36 1028 10 16 N/A
6:55 am 06:55 Clear 40 4.4 33 0.7 77 77 S 3 6 30.36 1028 10 16 N/A
7:15 am 07:15 Clear 39 3.7 32 0.2 78 78 SSW 3 6 30.36 1028 10 16 N/A
7:35 am 07:35 Clear 39 3.7 33 0.3 79 79 S 5 7 30.36 1028 10 16 N/A
7:55 am 07:55 Clear 40 4.7 33 0.6 75 75 S 5 7 30.36 1028 10 16 N/A
8:15 am 08:15 Sunny 43 6.1 34 1.1 71 71 S 5 7 30.33 1027 10 16 N/A
8:35 am 08:35 Sunny 43 6 34 1.3 72 72 S 6 9 30.33 1027 10 16 N/A
8:55 am 08:55 Sunny 44 6.4 35 1.6 72 72 S 6 9 30.33 1027 10 16 N/A
9:15 am 09:15 Sunny 46 8 36 2 66 66 S 8 13 30.33 1027 10 16 N/A
9:35 am 09:35 Sunny 49 9.2 37 2.6 64 64 S 5 7 30.30 1026 10 16 N/A
9:55 am 09:55 Sunny 50 10.1 37 2.8 61 61 S 7 11 30.30 1026 10 16 N/A
10:15 am 10:15 Sunny 53 11.4 37 3 57 57 SSW 6 9 30.30 1026 10 16 N/A
10:35 am 10:35 Sunny 55 13 38 3.1 51 51 S 5 7 30.27 1025 10 16 N/A
10:55 am 10:55 Sunny 58 14.7 37 2.8 45 45 S 9 15 30.27 1025 10 16 N/A
11:15 am 11:15 Sunny 60 15.6 37 2.6 42 42 SSW 15 24 30.24 1024 10 16 N/A
11:35 am 11:35 Sunny 62 16.5 37 3 41 41 SSW 13 20 30.24 1024 10 16 N/A
11:55 am 11:55 Sunny 62 16.9 38 3.2 40 40 SSW 13 20 30.24 1024 10 16 N/A
12:15 pm 12:15 Sunny 64 17.7 38 3.3 38 38 SW 15 24 30.21 1023 10 16 N/A
12:35 pm 12:35 Sunny 65 18.1 38 3.6 38 38 S 17 28 30.21 1023 10 16 N/A
12:55 pm 12:55 Sunny 65 18.5 39 4 38 38 SSW 18 30 30.18 1022 10 16 N/A
1:15 pm 13:15 Sunny 67 19.2 40 4.7 39 39 SSW 17 28 30.15 1021 10 16 N/A
1:35 pm 13:35 Sunny 67 19.5 40 4.7 38 38 S 17 28 30.15 1021 10 16 N/A
1:55 pm 13:55 Sunny 68 20 40 4.4 36 36 S 17 28 30.15 1021 10 16 N/A
2:15 pm 14:15 Sunny 68 20 41 5.1 38 38 S 12 19 30.12 1020 10 16 N/A
2:35 pm 14:35 Sunny 68 20.1 40 4.4 36 36 S 12 19 30.12 1020 10 16 N/A
2:55 pm 14:55 Sunny 68 20.1 40 4.3 35 35 S 16 26 30.12 1020 10 16 N/A
3:15 pm 15:15 Sunny 68 20.2 38 3.3 33 33 S 16 26 30.09 1019 10 16 N/A
3:35 pm 15:35 Sunny 68 20.2 43 5.9 39 39 S 12 19 30.09 1019 10 16 N/A
3:55 pm 15:55 Sunny 69 20.7 41 5.2 36 36 S 15 24 30.09 1019 10 16 N/A
4:15 pm 16:15 Sunny 69 20.8 44 6.4 39 39 S 13 20 30.09 1019 10 16 N/A
4:35 pm 16:35 Sunny 68 19.9 45 7.2 44 44 S 16 26 30.09 1019 10 16 N/A
4:55 pm 16:55 Sunny 67 19.5 46 7.5 46 46 S 14 22 30.09 1019 10 16 N/A
5:15 pm 17:15 Sunny 66 19.1 44 6.9 45 45 S 14 22 30.09 1019 10 16 N/A
5:35 pm 17:35 Sunny 65 18.4 47 8.3 52 52 S 14 22 30.09 1019 10 16 N/A
5:55 pm 17:55 Sunny 63 17.4 47 8.2 55 55 SSE 9 15 30.12 1020 10 16 N/A
6:15 pm 18:15 Sunny 60 15.8 46 8 60 60 SSE 8 13 30.12 1020 10 16 N/A
6:35 pm 18:35 Clear 58 14.5 46 7.7 64 64 SE 9 15 30.12 1020 10 16 N/A
6:55 pm 18:55 Clear 57 14 47 8.2 68 68 SSE 9 15 30.12 1020 10 16 N/A
7:15 pm 19:15 Clear 56 13.5 47 8.2 71 71 SSE 8 13 30.15 1021 10 16 N/A
7:35 pm 19:35 Clear 55 12.7 47 8.1 74 74 SSE 9 15 30.15 1021 10 16 N/A
7:55 pm 19:55 Clear 53 11.6 45 7.3 75 75 SSE 8 13 30.15 1021 10 16 N/A
8:15 pm 20:15 Clear 53 11.5 46 7.5 77 77 SSE 9 15 30.15 1021 10 16 N/A
8:35 pm 20:35 Clear 52 10.9 45 7.1 78 78 SSE 9 15 30.15 1021 10 16 N/A
8:55 pm 20:55 Clear 50 10 44 6.6 80 80 SSE 8 13 30.18 1022 10 16 N/A
9:15 pm 21:15 Clear 48 9.1 44 6.5 84 84 SE 8 13 30.18 1022 10 16 N/A
9:35 pm 21:35 Clear 48 9 44 6.5 85 85 SSE 7 11 30.18 1022 10 16 N/A
9:55 pm 21:55 Clear 49 9.4 45 7.2 86 86 SSE 8 13 30.18 1022 10 16 N/A
10:15 pm 22:15 Clear 51 10.7 47 8.3 85 85 SSE 8 13 30.15 1021 10 16 N/A
10:35 pm 22:35 Clear 54 12.1 48 9 82 82 SSE 7 11 30.15 1021 10 16 N/A
10:55 pm 22:55 Clear 51 10.8 47 8.4 85 85 SSE 7 11 30.15 1021 10 16 N/A
11:15 pm 23:15 Clear 50 10.1 47 8.2 88 88 SSE 9 15 30.18 1022 10 16 N/A
11:35 pm 23:35 Clear 49 9.7 47 8.1 90 90 SSE 8 13 30.18 1022 10 16 N/A
11:55 pm 23:55 Partly Cloudy 51 10.6 48 8.7 88 88 SSE 8 13 30.18 1022 10 16 N/A

Powered by AerisWeather